2020-079L

Last updated on Mon Dec 07 2020 00:02:03 GMT+0000 (Coordinated Universal Time)

1 46837U 20079L 20341.50855368 .00004003 00000-0 13117-3 0 9999 2 46837 97.2636 53.1477 0007911 161.7312 313.0600 15.32190340 4644
UTC large
Height (km)
Speed (km/s)
/
Latitude / Longitude
Inclination (degrees)
Orbital Period (minutes)
Azimuth
Elevation
Range (km)
Doppler Factor

Next 0 passes for location: London (51.5072 / 0.1276)

Sorry there are no passes over London.